Time,TemperatureF,DewpointF,PressureIn,WindDirection,WindDirectionDegrees,WindSpeedMPH,WindSpeedGustMPH,Humidity,HourlyPrecipIn,Conditions,Clouds,dailyrainin,SoftwareType,DateUTC
2013-04-23 00:01:00,50.0,42.4,30.30,NNE,23,1.6,1.8,75,0.00,,,0.00,WUHU216HW,2013-04-23 04:01:00,
2013-04-23 00:06:00,49.9,42.6,30.30,NNE,23,0.9,1.8,76,0.00,,,0.00,WUHU216HW,2013-04-23 04:06:00,
2013-04-23 00:11:00,49.7,42.4,30.29,NE,45,1.1,1.8,76,0.00,,,0.00,WUHU216HW,2013-04-23 04:11:00,
2013-04-23 00:16:00,49.7,42.4,30.29,North,0,1.6,2.2,76,0.00,,,0.00,WUHU216HW,2013-04-23 04:16:00,
2013-04-23 00:21:00,49.7,42.4,30.29,North,0,0.7,2.2,76,0.00,,,0.00,WUHU216HW,2013-04-23 04:21:00,
2013-04-23 00:26:00,49.7,42.8,30.29,NNW,338,0.4,1.8,77,0.00,,,0.00,WUHU216HW,2013-04-23 04:26:00,
2013-04-23 00:31:00,49.5,42.6,30.29,NNE,23,0.7,2.2,77,0.00,,,0.00,WUHU216HW,2013-04-23 04:31:00,
2013-04-23 00:36:00,49.5,42.6,30.29,NNE,23,1.1,2.2,77,0.00,,,0.00,WUHU216HW,2013-04-23 04:36:00,
2013-04-23 00:41:00,49.5,42.6,30.29,NE,45,1.1,1.8,77,0.00,,,0.00,WUHU216HW,2013-04-23 04:41:00,
2013-04-23 00:46:00,49.5,42.6,30.29,North,0,0.4,1.8,77,0.00,,,0.00,WUHU216HW,2013-04-23 04:46:00,
2013-04-23 00:51:00,49.5,42.8,30.29,NE,45,0.9,1.8,78,0.00,,,0.00,WUHU216HW,2013-04-23 04:51:00,
2013-04-23 00:56:00,49.3,42.7,30.28,NNE,23,1.1,1.8,78,0.00,,,0.00,WUHU216HW,2013-04-23 04:56:00,
2013-04-23 01:01:00,49.3,42.7,30.28,North,0,0.4,1.6,78,0.00,,,0.00,WUHU216HW,2013-04-23 05:01:00,
2013-04-23 01:06:00,49.3,42.7,30.28,NNE,23,0.7,1.8,78,0.00,,,0.00,WUHU216HW,2013-04-23 05:06:00,
2013-04-23 01:11:00,49.3,42.7,30.28,NE,45,1.1,1.8,78,0.00,,,0.00,WUHU216HW,2013-04-23 05:11:00,
2013-04-23 01:16:00,49.3,42.7,30.28,North,0,0.7,1.6,78,0.00,,,0.00,WUHU216HW,2013-04-23 05:16:00,
2013-04-23 01:21:00,49.3,42.7,30.28,NNE,23,0.7,1.6,78,0.00,,,0.00,WUHU216HW,2013-04-23 05:21:00,
2013-04-23 01:26:00,49.3,42.7,30.28,SE,135,0.7,1.6,78,0.00,,,0.00,WUHU216HW,2013-04-23 05:26:00,
2013-04-23 01:31:00,49.1,42.5,30.28,NNE,23,1.1,1.6,78,0.00,,,0.00,WUHU216HW,2013-04-23 05:31:00,
2013-04-23 01:36:00,49.0,42.7,30.28,NNE,23,1.6,1.6,79,0.00,,,0.00,WUHU216HW,2013-04-23 05:36:00,
2013-04-23 01:41:00,48.8,42.5,30.28,NE,45,0.2,1.6,79,0.00,,,0.00,WUHU216HW,2013-04-23 05:41:00,
2013-04-23 01:46:00,48.8,42.5,30.28,NNE,23,0.0,1.1,79,0.00,,,0.00,WUHU216HW,2013-04-23 05:46:00,
2013-04-23 01:51:00,48.6,42.7,30.27,North,0,0.7,1.8,80,0.00,,,0.00,WUHU216HW,2013-04-23 05:51:00,
2013-04-23 01:56:00,48.6,42.7,30.27,North,0,1.1,1.8,80,0.00,,,0.00,WUHU216HW,2013-04-23 05:56:00,
2013-04-23 02:01:00,48.4,42.5,30.27,North,0,1.1,1.3,80,0.00,,,0.00,WUHU216HW,2013-04-23 06:01:00,
2013-04-23 02:06:00,48.4,42.5,30.27,NE,45,1.1,1.6,80,0.00,,,0.00,WUHU216HW,2013-04-23 06:06:00,
2013-04-23 02:11:00,48.2,42.3,30.27,NNE,23,0.4,1.6,80,0.00,,,0.00,WUHU216HW,2013-04-23 06:11:00,
2013-04-23 02:16:00,48.2,42.7,30.26,North,0,0.7,1.8,81,0.00,,,0.00,WUHU216HW,2013-04-23 06:16:00,
2013-04-23 02:21:00,48.2,42.3,30.26,North,0,0.4,1.8,80,0.00,,,0.00,WUHU216HW,2013-04-23 06:21:00,
2013-04-23 02:26:00,48.1,42.5,30.26,North,0,1.1,1.8,81,0.00,,,0.00,WUHU216HW,2013-04-23 06:26:00,
2013-04-23 02:31:00,48.1,42.5,30.26,North,0,0.7,1.6,81,0.00,,,0.00,WUHU216HW,2013-04-23 06:31:00,
2013-04-23 02:36:00,47.9,42.3,30.26,North,0,0.4,2.2,81,0.00,,,0.00,WUHU216HW,2013-04-23 06:36:00,
2013-04-23 02:41:00,47.9,42.3,30.26,NNE,23,0.4,2.2,81,0.00,,,0.00,WUHU216HW,2013-04-23 06:41:00,
2013-04-23 02:46:00,47.9,42.3,30.25,NNW,338,0.4,2.0,81,0.00,,,0.00,WUHU216HW,2013-04-23 06:46:00,
2013-04-23 02:51:00,47.9,42.3,30.25,North,0,0.2,2.5,81,0.00,,,0.00,WUHU216HW,2013-04-23 06:51:00,
2013-04-23 02:56:00,47.9,42.3,30.25,SW,225,1.3,2.5,81,0.00,,,0.00,WUHU216HW,2013-04-23 06:56:00,
2013-04-23 03:01:00,47.9,42.3,30.25,North,0,2.7,2.7,81,0.00,,,0.00,WUHU216HW,2013-04-23 07:01:00,
2013-04-23 03:06:00,47.9,42.3,30.25,NE,45,1.1,2.7,81,0.00,,,0.00,WUHU216HW,2013-04-23 07:06:00,
2013-04-23 03:11:00,47.9,42.3,30.25,NE,45,0.9,2.7,81,0.01,,,0.01,WUHU216HW,2013-04-23 07:11:00,
2013-04-23 03:16:00,47.9,42.3,30.25,NW,315,0.4,1.8,81,0.01,,,0.01,WUHU216HW,2013-04-23 07:16:00,
2013-04-23 03:21:00,47.9,42.7,30.25,NE,45,2.9,2.9,82,0.01,,,0.01,WUHU216HW,2013-04-23 07:21:00,
2013-04-23 03:26:00,47.9,42.3,30.25,North,0,0.2,2.9,81,0.01,,,0.01,WUHU216HW,2013-04-23 07:26:00,
2013-04-23 03:31:00,47.7,42.5,30.25,NNE,23,0.4,2.9,82,0.01,,,0.01,WUHU216HW,2013-04-23 07:31:00,
2013-04-23 03:36:00,47.5,42.3,30.25,North,0,0.4,1.8,82,0.01,,,0.01,WUHU216HW,2013-04-23 07:36:00,
2013-04-23 03:41:00,47.5,42.6,30.25,North,0,0.9,1.6,83,0.01,,,0.01,WUHU216HW,2013-04-23 07:41:00,
2013-04-23 03:46:00,47.3,42.5,30.25,North,0,1.3,1.8,83,0.01,,,0.01,WUHU216HW,2013-04-23 07:46:00,
2013-04-23 03:51:00,47.3,42.8,30.24,North,0,1.1,2.2,84,0.01,,,0.01,WUHU216HW,2013-04-23 07:51:00,
2013-04-23 03:56:00,47.3,42.5,30.24,North,0,0.4,2.2,83,0.01,,,0.01,WUHU216HW,2013-04-23 07:56:00,
2013-04-23 04:01:00,47.3,42.8,30.24,NNW,338,1.8,1.8,84,0.01,,,0.01,WUHU216HW,2013-04-23 08:01:00,
2013-04-23 04:06:00,47.3,42.5,30.24,NNE,23,1.3,2.2,83,0.01,,,0.01,WUHU216HW,2013-04-23 08:06:00,
2013-04-23 04:11:00,47.3,42.8,30.24,North,0,0.4,2.2,84,0.00,,,0.01,WUHU216HW,2013-04-23 08:11:00,
2013-04-23 04:16:00,47.3,42.8,30.24,NE,45,1.8,2.2,84,0.00,,,0.01,WUHU216HW,2013-04-23 08:16:00,
2013-04-23 04:21:00,47.3,42.8,30.24,North,0,0.9,2.0,84,0.00,,,0.01,WUHU216HW,2013-04-23 08:21:00,
2013-04-23 04:26:00,47.3,42.8,30.24,North,0,0.2,1.8,84,0.00,,,0.01,WUHU216HW,2013-04-23 08:26:00,
2013-04-23 04:31:00,47.3,42.8,30.24,North,0,0.4,1.8,84,0.00,,,0.01,WUHU216HW,2013-04-23 08:31:00,
2013-04-23 04:36:00,47.2,42.3,30.23,NNE,23,0.7,1.8,83,0.00,,,0.01,WUHU216HW,2013-04-23 08:36:00,
2013-04-23 04:41:00,47.3,42.5,30.23,NNE,23,1.1,1.8,83,0.00,,,0.01,WUHU216HW,2013-04-23 08:41:00,
2013-04-23 04:46:00,47.3,42.5,30.23,NNW,338,0.4,1.8,83,0.00,,,0.01,WUHU216HW,2013-04-23 08:46:00,
2013-04-23 04:51:00,47.3,42.5,30.23,NNE,23,0.7,1.8,83,0.00,,,0.01,WUHU216HW,2013-04-23 08:51:00,
2013-04-23 04:56:00,47.3,42.5,30.23,NE,45,0.4,1.6,83,0.00,,,0.01,WUHU216HW,2013-04-23 08:56:00,
2013-04-23 05:01:00,47.3,42.5,30.23,North,0,1.1,2.0,83,0.00,,,0.01,WUHU216HW,2013-04-23 09:01:00,
2013-04-23 05:06:00,47.3,42.5,30.23,NNE,23,1.1,2.0,83,0.00,,,0.01,WUHU216HW,2013-04-23 09:06:00,
2013-04-23 05:11:00,47.3,42.5,30.23,NE,45,0.4,2.0,83,0.00,,,0.01,WUHU216HW,2013-04-23 09:11:00,
2013-04-23 05:16:00,47.3,42.5,30.23,NE,45,0.4,1.8,83,0.00,,,0.01,WUHU216HW,2013-04-23 09:16:00,
2013-04-23 05:21:00,47.3,42.5,30.23,NE,45,1.3,1.8,83,0.00,,,0.01,WUHU216HW,2013-04-23 09:21:00,
2013-04-23 05:26:00,47.3,42.5,30.23,NE,45,0.0,1.6,83,0.00,,,0.01,WUHU216HW,2013-04-23 09:26:00,
2013-04-23 05:31:00,47.2,42.3,30.23,NNE,23,1.3,1.8,83,0.00,,,0.01,WUHU216HW,2013-04-23 09:31:00,
2013-04-23 05:36:00,47.2,42.3,30.23,North,0,0.4,1.8,83,0.00,,,0.01,WUHU216HW,2013-04-23 09:36:00,
2013-04-23 05:41:00,47.2,42.3,30.23,NNE,23,2.0,2.0,83,0.00,,,0.01,WUHU216HW,2013-04-23 09:41:00,
2013-04-23 05:47:00,47.2,42.3,30.23,NNE,23,1.1,2.0,83,0.00,,,0.01,WUHU216HW,2013-04-23 09:47:00,
2013-04-23 05:52:00,47.2,42.3,30.23,NNE,23,1.1,1.8,83,0.00,,,0.01,WUHU216HW,2013-04-23 09:52:00,
2013-04-23 05:57:00,47.2,42.3,30.23,NNE,23,1.1,1.8,83,0.00,,,0.01,WUHU216HW,2013-04-23 09:57:00,
2013-04-23 06:02:00,47.2,42.3,30.23,North,0,0.4,1.8,83,0.00,,,0.01,WUHU216HW,2013-04-23 10:02:00,
2013-04-23 06:07:00,47.2,42.3,30.23,North,0,1.3,2.5,83,0.00,,,0.01,WUHU216HW,2013-04-23 10:07:00,
2013-04-23 06:12:00,47.2,42.3,30.23,NE,45,1.3,2.5,83,0.00,,,0.01,WUHU216HW,2013-04-23 10:12:00,
2013-04-23 06:17:00,47.2,42.3,30.24,ESE,113,0.7,2.0,83,0.00,,,0.01,WUHU216HW,2013-04-23 10:17:00,
2013-04-23 06:22:00,47.2,42.3,30.24,North,0,0.4,1.8,83,0.00,,,0.01,WUHU216HW,2013-04-23 10:22:00,
2013-04-23 06:27:00,47.2,42.3,30.24,North,0,2.0,2.0,83,0.00,,,0.01,WUHU216HW,2013-04-23 10:27:00,
2013-04-23 06:32:00,47.2,42.3,30.24,North,0,1.1,2.0,83,0.00,,,0.01,WUHU216HW,2013-04-23 10:32:00,
2013-04-23 06:37:00,47.2,41.9,30.24,NNE,23,0.0,1.6,82,0.00,,,0.01,WUHU216HW,2013-04-23 10:37:00,
2013-04-23 06:42:00,47.2,41.9,30.24,NE,45,1.1,1.8,82,0.00,,,0.01,WUHU216HW,2013-04-23 10:42:00,
2013-04-23 06:47:00,47.2,42.3,30.24,NNE,23,0.4,1.8,83,0.00,,,0.01,WUHU216HW,2013-04-23 10:47:00,
2013-04-23 06:52:00,47.2,42.3,30.24,NNE,23,0.0,1.8,83,0.00,,,0.01,WUHU216HW,2013-04-23 10:52:00,
2013-04-23 06:57:00,47.2,41.9,30.24,NNE,23,0.9,2.0,82,0.00,,,0.01,WUHU216HW,2013-04-23 10:57:00,
2013-04-23 07:02:00,47.2,42.3,30.25,North,0,1.1,2.2,83,0.00,,,0.01,WUHU216HW,2013-04-23 11:02:00,
2013-04-23 07:07:00,47.2,42.3,30.25,NNW,338,0.7,2.2,83,0.00,,,0.01,WUHU216HW,2013-04-23 11:07:00,
2013-04-23 07:12:00,47.2,41.9,30.25,NNE,23,0.7,2.2,82,0.00,,,0.01,WUHU216HW,2013-04-23 11:12:00,
2013-04-23 07:16:00,47.2,41.9,30.25,North,0,0.4,2.0,82,0.00,,,0.01,WUHU216HW,2013-04-23 11:16:00,
2013-04-23 07:22:00,47.2,41.9,30.25,North,0,1.1,1.6,82,0.00,,,0.01,WUHU216HW,2013-04-23 11:22:00,
2013-04-23 07:27:00,47.2,41.9,30.25,NNE,23,1.1,2.0,82,0.00,,,0.01,WUHU216HW,2013-04-23 11:27:00,
2013-04-23 07:31:00,47.2,41.9,30.26,NNE,23,0.0,2.0,82,0.00,,,0.01,WUHU216HW,2013-04-23 11:31:00,
2013-04-23 07:36:00,47.3,42.1,30.25,ENE,68,0.7,1.6,82,0.00,,,0.01,WUHU216HW,2013-04-23 11:36:00,
2013-04-23 07:41:00,47.3,42.1,30.25,NNE,23,0.2,1.6,82,0.00,,,0.01,WUHU216HW,2013-04-23 11:41:00,
2013-04-23 07:46:00,47.5,42.3,30.26,North,0,0.9,1.3,82,0.00,,,0.01,WUHU216HW,2013-04-23 11:46:00,
2013-04-23 07:51:00,47.5,42.3,30.26,North,0,0.9,1.3,82,0.00,,,0.01,WUHU216HW,2013-04-23 11:51:00,
2013-04-23 07:56:00,47.5,42.3,30.26,North,0,0.0,1.3,82,0.00,,,0.01,WUHU216HW,2013-04-23 11:56:00,
2013-04-23 08:01:00,47.5,41.9,30.26,NE,45,0.7,2.0,81,0.00,,,0.01,WUHU216HW,2013-04-23 12:01:00,
2013-04-23 08:06:00,47.5,41.9,30.26,ENE,68,0.4,2.0,81,0.00,,,0.01,WUHU216HW,2013-04-23 12:06:00,
2013-04-23 08:11:00,47.7,42.1,30.26,North,0,0.9,1.8,81,0.00,,,0.01,WUHU216HW,2013-04-23 12:11:00,
2013-04-23 08:16:00,47.7,42.1,30.26,NNE,23,0.2,1.6,81,0.00,,,0.01,WUHU216HW,2013-04-23 12:16:00,
2013-04-23 08:21:00,47.7,42.1,30.26,North,0,0.7,1.6,81,0.00,,,0.01,WUHU216HW,2013-04-23 12:21:00,
2013-04-23 08:26:00,47.9,42.3,30.26,North,0,0.0,1.6,81,0.00,,,0.01,WUHU216HW,2013-04-23 12:26:00,
2013-04-23 08:31:00,47.9,42.3,30.26,NNE,23,0.2,1.8,81,0.00,,,0.01,WUHU216HW,2013-04-23 12:31:00,
2013-04-23 08:36:00,47.9,42.3,30.26,North,0,0.4,2.7,81,0.00,,,0.01,WUHU216HW,2013-04-23 12:36:00,
2013-04-23 08:41:00,47.9,42.3,30.26,North,0,1.3,2.7,81,0.00,,,0.01,WUHU216HW,2013-04-23 12:41:00,
2013-04-23 08:46:00,47.9,42.3,30.26,NNE,23,0.7,1.6,81,0.00,,,0.01,WUHU216HW,2013-04-23 12:46:00,
2013-04-23 08:51:00,48.1,42.5,30.26,North,0,1.8,2.0,81,0.00,,,0.01,WUHU216HW,2013-04-23 12:51:00,
2013-04-23 08:56:00,48.1,42.5,30.26,NE,45,1.1,2.0,81,0.00,,,0.01,WUHU216HW,2013-04-23 12:56:00,
2013-04-23 09:01:00,48.2,42.7,30.26,NNE,23,0.7,2.2,81,0.00,,,0.01,WUHU216HW,2013-04-23 13:01:00,
2013-04-23 09:06:00,48.2,42.7,30.26,SE,135,0.4,2.2,81,0.00,,,0.01,WUHU216HW,2013-04-23 13:06:00,
2013-04-23 09:11:00,48.4,43.1,30.26,ENE,68,0.9,1.8,82,0.00,,,0.01,WUHU216HW,2013-04-23 13:11:00,
2013-04-23 09:16:00,48.6,43.0,30.26,NE,45,0.2,1.8,81,0.00,,,0.01,WUHU216HW,2013-04-23 13:16:00,
2013-04-23 09:21:00,48.6,43.0,30.26,North,0,0.2,1.1,81,0.00,,,0.01,WUHU216HW,2013-04-23 13:21:00,
2013-04-23 09:26:00,48.6,43.0,30.27,North,0,0.2,2.0,81,0.00,,,0.01,WUHU216HW,2013-04-23 13:26:00,
2013-04-23 09:31:00,48.6,43.0,30.26,NE,45,0.9,3.1,81,0.00,,,0.01,WUHU216HW,2013-04-23 13:31:00,
2013-04-23 09:36:00,49.0,43.4,30.26,NNE,23,0.9,3.1,81,0.00,,,0.01,WUHU216HW,2013-04-23 13:36:00,
2013-04-23 09:41:00,49.0,43.4,30.26,North,0,1.1,1.8,81,0.00,,,0.01,WUHU216HW,2013-04-23 13:41:00,
2013-04-23 09:46:00,49.0,43.4,30.26,North,0,0.9,1.8,81,0.00,,,0.01,WUHU216HW,2013-04-23 13:46:00,
2013-04-23 09:51:00,49.1,43.5,30.26,ENE,68,1.3,1.6,81,0.00,,,0.01,WUHU216HW,2013-04-23 13:51:00,
2013-04-23 09:56:00,49.1,43.5,30.26,NNE,23,1.1,1.6,81,0.00,,,0.01,WUHU216HW,2013-04-23 13:56:00,
2013-04-23 10:01:00,49.3,43.7,30.26,NE,45,1.3,1.3,81,0.00,,,0.01,WUHU216HW,2013-04-23 14:01:00,
2013-04-23 10:06:00,49.3,43.4,30.26,East,90,0.7,1.3,80,0.00,,,0.01,WUHU216HW,2013-04-23 14:06:00,
2013-04-23 10:11:00,49.5,43.8,30.27,NE,45,1.1,1.3,81,0.00,,,0.01,WUHU216HW,2013-04-23 14:11:00,
2013-04-23 10:16:00,49.5,43.6,30.27,North,0,0.2,1.3,80,0.00,,,0.01,WUHU216HW,2013-04-23 14:16:00,
2013-04-23 10:21:00,49.5,43.6,30.27,NNE,23,0.7,1.8,80,0.00,,,0.01,WUHU216HW,2013-04-23 14:21:00,
2013-04-23 10:26:00,49.5,43.6,30.27,NNE,23,1.3,1.8,80,0.00,,,0.01,WUHU216HW,2013-04-23 14:26:00,
2013-04-23 10:31:00,49.7,43.7,30.27,NNE,23,1.3,2.0,80,0.00,,,0.01,WUHU216HW,2013-04-23 14:31:00,
2013-04-23 10:36:00,50.0,44.1,30.27,NNE,23,1.1,2.0,80,0.00,,,0.01,WUHU216HW,2013-04-23 14:36:00,
2013-04-23 10:41:00,50.2,44.3,30.27,NNW,338,1.3,2.0,80,0.00,,,0.01,WUHU216HW,2013-04-23 14:41:00,
2013-04-23 10:46:00,50.6,44.3,30.27,NE,45,1.3,2.0,79,0.00,,,0.01,WUHU216HW,2013-04-23 14:46:00,
2013-04-23 10:51:00,50.8,44.5,30.27,NNE,23,0.9,1.8,79,0.00,,,0.01,WUHU216HW,2013-04-23 14:51:00,
2013-04-23 10:56:00,50.9,44.3,30.27,NNW,338,0.4,1.8,78,0.00,,,0.01,WUHU216HW,2013-04-23 14:56:00,
2013-04-23 11:01:00,51.1,44.5,30.27,ENE,68,0.9,1.8,78,0.00,,,0.01,WUHU216HW,2013-04-23 15:01:00,
2013-04-23 11:06:00,51.5,44.8,30.27,NE,45,0.9,2.2,78,0.00,,,0.01,WUHU216HW,2013-04-23 15:06:00,
2013-04-23 11:11:00,51.5,44.6,30.27,NE,45,0.9,2.5,77,0.00,,,0.01,WUHU216HW,2013-04-23 15:11:00,
2013-04-23 11:16:00,51.7,44.7,30.27,NE,45,0.4,2.5,77,0.00,,,0.01,WUHU216HW,2013-04-23 15:16:00,
2013-04-23 11:21:00,52.0,45.1,30.27,NNW,338,0.9,1.8,77,0.00,,,0.01,WUHU216HW,2013-04-23 15:21:00,
2013-04-23 11:26:00,52.2,45.2,30.27,NE,45,0.9,1.8,77,0.00,,,0.01,WUHU216HW,2013-04-23 15:26:00,
2013-04-23 11:31:00,52.6,45.2,30.27,South,180,0.4,1.8,76,0.00,,,0.01,WUHU216HW,2013-04-23 15:31:00,
2013-04-23 11:36:00,52.9,45.5,30.27,ENE,68,0.7,2.0,76,0.00,,,0.01,WUHU216HW,2013-04-23 15:36:00,
2013-04-23 11:41:00,52.9,45.2,30.27,NNW,338,0.0,2.0,75,0.00,,,0.01,WUHU216HW,2013-04-23 15:41:00,
2013-04-23 11:46:00,53.1,45.4,30.28,SSW,203,0.2,1.8,75,0.00,,,0.01,WUHU216HW,2013-04-23 15:46:00,
2013-04-23 11:51:00,53.3,45.5,30.28,NE,45,0.0,1.8,75,0.00,,,0.01,WUHU216HW,2013-04-23 15:51:00,
2013-04-23 11:57:00,53.6,45.9,30.27,North,0,0.9,1.1,75,0.00,,,0.01,WUHU216HW,2013-04-23 15:57:00,
2013-04-23 12:01:00,53.8,46.1,30.28,SW,225,0.0,1.6,75,0.00,,,0.01,WUHU216HW,2013-04-23 16:01:00,
2013-04-23 12:07:00,54.2,46.5,30.27,NNW,338,0.7,1.6,75,0.00,,,0.01,WUHU216HW,2013-04-23 16:07:00,
2013-04-23 12:12:00,54.5,46.8,30.26,ESE,113,1.1,1.6,75,0.00,,,0.01,WUHU216HW,2013-04-23 16:12:00,
2013-04-23 12:17:00,54.9,46.7,30.27,WSW,248,0.9,2.0,74,0.00,,,0.01,WUHU216HW,2013-04-23 16:17:00,
2013-04-23 12:22:00,55.1,46.6,30.27,SSE,158,2.5,3.4,73,0.00,,,0.01,WUHU216HW,2013-04-23 16:22:00,
2013-04-23 12:27:00,55.4,46.9,30.27,North,0,0.7,3.4,73,0.00,,,0.01,WUHU216HW,2013-04-23 16:27:00,
2013-04-23 12:32:00,55.6,46.5,30.27,NE,45,0.4,2.5,71,0.00,,,0.01,WUHU216HW,2013-04-23 16:32:00,
2013-04-23 12:37:00,55.8,46.9,30.27,North,0,0.4,1.8,72,0.00,,,0.01,WUHU216HW,2013-04-23 16:37:00,
2013-04-23 12:42:00,56.2,47.3,30.28,SW,225,0.9,1.8,72,0.00,,,0.01,WUHU216HW,2013-04-23 16:42:00,
2013-04-23 12:47:00,56.5,47.3,30.28,SE,135,1.1,1.8,71,0.00,,,0.01,WUHU216HW,2013-04-23 16:47:00,
2013-04-23 12:52:00,56.9,47.5,30.28,ENE,68,0.0,1.1,71,0.00,,,0.01,WUHU216HW,2013-04-23 16:52:00,
2013-04-23 12:57:00,57.2,47.5,30.26,ESE,113,1.3,2.5,70,0.00,,,0.01,WUHU216HW,2013-04-23 16:57:00,
2013-04-23 13:02:00,57.6,47.9,30.26,SE,135,0.2,2.5,70,0.00,,,0.01,WUHU216HW,2013-04-23 17:02:00,
2013-04-23 13:07:00,58.0,47.9,30.26,NE,45,1.8,2.0,69,0.00,,,0.01,WUHU216HW,2013-04-23 17:07:00,
2013-04-23 13:12:00,58.5,48.3,30.25,WNW,293,0.4,3.4,69,0.00,,,0.01,WUHU216HW,2013-04-23 17:12:00,
2013-04-23 13:17:00,59.2,49.1,30.25,East,90,1.8,3.4,69,0.00,,,0.01,WUHU216HW,2013-04-23 17:17:00,
2013-04-23 13:22:00,59.8,48.8,30.24,SE,135,2.2,3.4,67,0.00,,,0.01,WUHU216HW,2013-04-23 17:22:00,
2013-04-23 13:27:00,60.1,48.8,30.24,NE,45,1.1,3.4,66,0.00,,,0.01,WUHU216HW,2013-04-23 17:27:00,
2013-04-23 13:32:00,60.3,49.0,30.24,NNW,338,1.3,3.4,66,0.00,,,0.01,WUHU216HW,2013-04-23 17:32:00,
2013-04-23 13:37:00,60.7,48.9,30.23,North,0,0.7,2.5,65,0.00,,,0.01,WUHU216HW,2013-04-23 17:37:00,
2013-04-23 13:42:00,60.8,49.1,30.23,North,0,0.0,2.0,65,0.00,,,0.01,WUHU216HW,2013-04-23 17:42:00,
2013-04-23 13:47:00,60.8,49.1,30.23,NNE,23,0.4,2.0,65,0.00,,,0.01,WUHU216HW,2013-04-23 17:47:00,
2013-04-23 13:52:00,61.2,49.4,30.23,NW,315,0.2,2.0,65,0.00,,,0.01,WUHU216HW,2013-04-23 17:52:00,
2013-04-23 13:57:00,62.1,50.2,30.23,NE,45,0.4,2.0,65,0.00,,,0.01,WUHU216HW,2013-04-23 17:57:00,
2013-04-23 14:02:00,62.6,50.2,30.22,NNE,23,0.7,2.0,64,0.00,,,0.01,WUHU216HW,2013-04-23 18:02:00,
2013-04-23 14:07:00,63.4,51.0,30.23,ENE,68,1.8,2.0,64,0.00,,,0.01,WUHU216HW,2013-04-23 18:07:00,
2013-04-23 14:12:00,63.9,50.6,30.22,NNE,23,1.8,2.5,62,0.00,,,0.01,WUHU216HW,2013-04-23 18:12:00,
2013-04-23 14:17:00,64.1,50.8,30.22,ENE,68,0.7,2.5,62,0.00,,,0.01,WUHU216HW,2013-04-23 18:17:00,
2013-04-23 14:22:00,64.4,50.7,30.21,ESE,113,1.1,2.5,61,0.00,,,0.01,WUHU216HW,2013-04-23 18:22:00,
2013-04-23 14:27:00,64.6,50.0,30.21,NNW,338,1.6,2.2,59,0.00,,,0.01,WUHU216HW,2013-04-23 18:27:00,
2013-04-23 14:32:00,64.4,50.2,30.20,ENE,68,1.8,2.2,60,0.00,,,0.01,WUHU216HW,2013-04-23 18:32:00,
2013-04-23 14:37:00,64.8,50.1,30.21,SSW,203,0.9,1.8,59,0.00,,,0.01,WUHU216HW,2013-04-23 18:37:00,
2013-04-23 14:42:00,65.0,49.8,30.20,SW,225,0.4,3.1,58,0.00,,,0.01,WUHU216HW,2013-04-23 18:42:00,
2013-04-23 14:47:00,65.5,50.9,30.20,NE,45,1.8,3.1,59,0.00,,,0.01,WUHU216HW,2013-04-23 18:47:00,
2013-04-23 14:52:00,65.9,50.7,30.20,NNE,23,1.1,2.5,58,0.00,,,0.01,WUHU216HW,2013-04-23 18:52:00,
2013-04-23 14:57:00,65.9,50.2,30.20,NE,45,0.4,2.0,57,0.00,,,0.01,WUHU216HW,2013-04-23 18:57:00,
2013-04-23 15:02:00,66.2,50.6,30.20,NNW,338,0.9,2.0,57,0.00,,,0.01,WUHU216HW,2013-04-23 19:02:00,
2013-04-23 15:07:00,66.2,50.6,30.20,SW,225,0.2,1.8,57,0.00,,,0.01,WUHU216HW,2013-04-23 19:07:00,
2013-04-23 15:12:00,66.4,50.8,30.19,ENE,68,1.6,1.8,57,0.00,,,0.01,WUHU216HW,2013-04-23 19:12:00,
2013-04-23 15:17:00,66.6,50.4,30.19,SE,135,1.1,2.0,56,0.00,,,0.01,WUHU216HW,2013-04-23 19:17:00,
2013-04-23 15:22:00,66.6,50.4,30.18,NNW,338,0.7,2.0,56,0.00,,,0.01,WUHU216HW,2013-04-23 19:22:00,
2013-04-23 15:27:00,66.4,50.2,30.18,SSW,203,0.7,1.8,56,0.00,,,0.01,WUHU216HW,2013-04-23 19:27:00,
2013-04-23 15:32:00,67.0,50.8,30.18,SE,135,0.4,2.7,56,0.00,,,0.01,WUHU216HW,2013-04-23 19:32:00,
2013-04-23 15:37:00,67.3,50.6,30.18,NNE,23,1.8,2.7,55,0.00,,,0.01,WUHU216HW,2013-04-23 19:37:00,
2013-04-23 15:42:00,67.5,50.8,30.18,North,0,2.5,2.5,55,0.00,,,0.01,WUHU216HW,2013-04-23 19:42:00,
2013-04-23 15:47:00,67.3,50.0,30.18,NNW,338,1.1,2.5,54,0.00,,,0.01,WUHU216HW,2013-04-23 19:47:00,
2013-04-23 15:52:00,66.6,49.4,30.18,NW,315,0.7,2.5,54,0.00,,,0.01,WUHU216HW,2013-04-23 19:52:00,
2013-04-23 15:57:00,67.0,50.2,30.17,North,0,0.4,2.2,55,0.00,,,0.01,WUHU216HW,2013-04-23 19:57:00,
2013-04-23 16:02:00,67.3,50.0,30.17,SSE,158,3.4,3.4,54,0.00,,,0.01,WUHU216HW,2013-04-23 20:02:00,
2013-04-23 16:07:00,67.7,50.4,30.17,ENE,68,0.7,3.4,54,0.00,,,0.01,WUHU216HW,2013-04-23 20:07:00,
2013-04-23 16:12:00,68.0,50.8,30.17,South,180,2.0,3.4,54,0.00,,,0.01,WUHU216HW,2013-04-23 20:12:00,
2013-04-23 16:17:00,68.2,50.4,30.16,SW,225,0.4,2.5,53,0.00,,,0.01,WUHU216HW,2013-04-23 20:17:00,
2013-04-23 16:22:00,68.6,50.8,30.16,NE,45,0.4,2.0,53,0.00,,,0.01,WUHU216HW,2013-04-23 20:22:00,
2013-04-23 16:27:00,68.6,50.8,30.15,ESE,113,0.4,1.8,53,0.00,,,0.01,WUHU216HW,2013-04-23 20:27:00,
2013-04-23 16:32:00,68.6,50.8,30.15,SSW,203,0.7,1.8,53,0.00,,,0.01,WUHU216HW,2013-04-23 20:32:00,
2013-04-23 16:37:00,68.4,50.0,30.15,ENE,68,0.9,2.5,52,0.00,,,0.01,WUHU216HW,2013-04-23 20:37:00,
2013-04-23 16:42:00,68.2,50.0,30.15,NE,45,1.1,2.5,52,0.00,,,0.01,WUHU216HW,2013-04-23 20:42:00,
2013-04-23 16:47:00,68.2,50.4,30.15,ENE,68,0.4,2.0,53,0.00,,,0.01,WUHU216HW,2013-04-23 20:47:00,
2013-04-23 16:52:00,68.0,49.8,30.15,NNW,338,0.4,1.1,52,0.00,,,0.01,WUHU216HW,2013-04-23 20:52:00,
2013-04-23 16:57:00,68.0,50.2,30.15,ESE,113,0.0,1.1,53,0.00,,,0.01,WUHU216HW,2013-04-23 20:57:00,
2013-04-23 17:02:00,68.0,50.2,30.15,NNE,23,1.1,1.3,53,0.00,,,0.01,WUHU216HW,2013-04-23 21:02:00,
2013-04-23 17:07:00,67.7,50.0,30.15,NE,45,1.1,1.3,53,0.00,,,0.01,WUHU216HW,2013-04-23 21:07:00,
2013-04-23 17:12:00,67.7,50.4,30.14,SE,135,1.1,1.1,54,0.00,,,0.01,WUHU216HW,2013-04-23 21:12:00,
2013-04-23 17:17:00,67.7,50.0,30.14,NNW,338,0.4,2.5,53,0.00,,,0.01,WUHU216HW,2013-04-23 21:17:00,
2013-04-23 17:22:00,67.3,49.6,30.14,NNE,23,0.2,2.5,53,0.00,,,0.01,WUHU216HW,2013-04-23 21:22:00,
2013-04-23 17:27:00,67.0,49.8,30.14,SE,135,0.2,2.0,54,0.00,,,0.01,WUHU216HW,2013-04-23 21:27:00,
2013-04-23 17:32:00,67.3,50.0,30.14,SE,135,0.9,1.1,54,0.00,,,0.01,WUHU216HW,2013-04-23 21:32:00,
2013-04-23 17:37:00,67.7,50.9,30.15,SSW,203,0.2,2.5,55,0.00,,,0.01,WUHU216HW,2013-04-23 21:37:00,
2013-04-23 17:42:00,68.0,50.8,30.15,SSE,158,0.4,2.7,54,0.00,,,0.01,WUHU216HW,2013-04-23 21:42:00,
2013-04-23 17:47:00,68.0,50.8,30.15,SSE,158,0.4,2.7,54,0.00,,,0.01,WUHU216HW,2013-04-23 21:47:00,
2013-04-23 17:52:00,68.2,50.9,30.15,SE,135,2.5,2.5,54,0.00,,,0.01,WUHU216HW,2013-04-23 21:52:00,
2013-04-23 17:57:00,68.0,50.2,30.15,SSW,203,0.0,2.5,53,0.00,,,0.01,WUHU216HW,2013-04-23 21:57:00,
2013-04-23 18:02:00,68.0,50.8,30.15,ENE,68,0.7,2.5,54,0.00,,,0.01,WUHU216HW,2013-04-23 22:02:00,
2013-04-23 18:07:00,67.9,50.6,30.15,South,180,0.4,1.8,54,0.00,,,0.01,WUHU216HW,2013-04-23 22:07:00,
2013-04-23 18:12:00,67.9,50.6,30.15,SSE,158,0.0,1.6,54,0.00,,,0.01,WUHU216HW,2013-04-23 22:12:00,
2013-04-23 18:17:00,67.9,50.6,30.15,NNE,23,0.2,1.6,54,0.00,,,0.01,WUHU216HW,2013-04-23 22:17:00,
2013-04-23 18:22:00,67.5,50.8,30.15,NE,45,0.2,1.3,55,0.00,,,0.01,WUHU216HW,2013-04-23 22:22:00,
2013-04-23 18:27:00,67.1,50.4,30.15,NNE,23,0.4,1.1,55,0.00,,,0.01,WUHU216HW,2013-04-23 22:27:00,
2013-04-23 18:32:00,66.4,49.8,30.15,NNW,338,0.7,1.1,55,0.00,,,0.01,WUHU216HW,2013-04-23 22:32:00,
2013-04-23 18:37:00,65.9,49.2,30.15,NNE,23,0.0,1.1,55,0.00,,,0.01,WUHU216HW,2013-04-23 22:37:00,
2013-04-23 18:42:00,65.5,49.3,30.14,SE,135,0.0,1.1,56,0.00,,,0.01,WUHU216HW,2013-04-23 22:42:00,
2013-04-23 18:47:00,65.5,49.3,30.14,SE,135,0.7,0.7,56,0.00,,,0.01,WUHU216HW,2013-04-23 22:47:00,
2013-04-23 18:52:00,65.3,49.7,30.15,SSE,158,0.0,0.7,57,0.00,,,0.01,WUHU216HW,2013-04-23 22:52:00,
2013-04-23 18:57:00,65.3,49.7,30.15,SE,135,0.0,0.7,57,0.00,,,0.01,WUHU216HW,2013-04-23 22:57:00,
2013-04-23 19:02:00,65.2,49.5,30.15,SE,135,0.0,0.0,57,0.00,,,0.01,WUHU216HW,2013-04-23 23:02:00,
2013-04-23 19:07:00,65.2,49.5,30.15,ESE,113,0.0,0.0,57,0.00,,,0.01,WUHU216HW,2013-04-23 23:07:00,
2013-04-23 19:12:00,65.2,50.0,30.15,ESE,113,0.0,0.0,58,0.00,,,0.01,WUHU216HW,2013-04-23 23:12:00,
2013-04-23 19:17:00,65.0,49.8,30.14,ESE,113,0.0,0.0,58,0.00,,,0.01,WUHU216HW,2013-04-23 23:17:00,
2013-04-23 19:22:00,65.0,49.8,30.14,ESE,113,0.0,0.0,58,0.00,,,0.01,WUHU216HW,2013-04-23 23:22:00,
2013-04-23 19:27:00,64.8,50.1,30.15,NE,45,0.0,0.0,59,0.00,,,0.01,WUHU216HW,2013-04-23 23:27:00,
2013-04-23 19:32:00,64.8,50.1,30.15,NE,45,0.0,0.0,59,0.00,,,0.01,WUHU216HW,2013-04-23 23:32:00,
2013-04-23 19:37:00,64.4,49.8,30.14,NE,45,0.0,0.0,59,0.00,,,0.01,WUHU216HW,2013-04-23 23:37:00,
2013-04-23 19:42:00,64.3,49.6,30.15,NNW,338,0.0,0.0,59,0.00,,,0.01,WUHU216HW,2013-04-23 23:42:00,
2013-04-23 19:47:00,63.9,49.2,30.15,NNW,338,0.0,0.0,59,0.00,,,0.01,WUHU216HW,2013-04-23 23:47:00,
2013-04-23 19:52:00,63.7,49.6,30.15,North,0,0.0,0.0,60,0.00,,,0.01,WUHU216HW,2013-04-23 23:52:00,
2013-04-23 19:57:00,63.4,49.2,30.15,NNE,23,0.0,0.0,60,0.00,,,0.01,WUHU216HW,2013-04-23 23:57:00,
2013-04-23 20:02:00,63.0,49.3,30.15,NNE,23,0.0,0.0,61,0.00,,,0.01,WUHU216HW,2013-04-24 00:02:00,
2013-04-23 20:07:00,62.6,49.1,30.15,NNE,23,0.0,0.0,61,0.00,,,0.01,WUHU216HW,2013-04-24 00:07:00,
2013-04-23 20:12:00,62.5,49.2,30.15,NNE,23,0.0,0.0,62,0.00,,,0.01,WUHU216HW,2013-04-24 00:12:00,
2013-04-23 20:17:00,62.3,49.2,30.15,NNE,23,0.0,0.0,62,0.00,,,0.01,WUHU216HW,2013-04-24 00:17:00,
2013-04-23 20:22:00,61.9,49.2,30.15,NNE,23,0.0,0.0,63,0.00,,,0.01,WUHU216HW,2013-04-24 00:22:00,
2013-04-23 20:27:00,61.7,49.1,30.15,NNE,23,0.0,0.0,63,0.00,,,0.01,WUHU216HW,2013-04-24 00:27:00,
2013-04-23 20:32:00,61.6,49.3,30.15,NNE,23,0.0,0.0,64,0.00,,,0.01,WUHU216HW,2013-04-24 00:32:00,
2013-04-23 20:37:00,61.4,49.5,30.15,NNE,23,0.0,0.0,65,0.00,,,0.01,WUHU216HW,2013-04-24 00:37:00,
2013-04-23 20:42:00,61.0,49.2,30.16,NNE,23,0.0,0.0,65,0.00,,,0.01,WUHU216HW,2013-04-24 00:42:00,
2013-04-23 20:47:00,60.8,49.1,30.16,NNW,338,0.0,0.0,65,0.00,,,0.01,WUHU216HW,2013-04-24 00:47:00,
2013-04-23 20:52:00,60.5,48.7,30.16,NNW,338,0.0,0.0,65,0.00,,,0.01,WUHU216HW,2013-04-24 00:52:00,
2013-04-23 20:57:00,60.1,48.8,30.16,NNW,338,0.0,0.0,66,0.00,,,0.01,WUHU216HW,2013-04-24 00:57:00,
2013-04-23 21:02:00,59.9,48.6,30.16,NNW,338,0.0,0.0,66,0.00,,,0.01,WUHU216HW,2013-04-24 01:02:00,
2013-04-23 21:07:00,59.8,48.8,30.16,NNW,338,0.0,0.0,67,0.00,,,0.01,WUHU216HW,2013-04-24 01:07:00,
2013-04-23 21:12:00,59.4,48.4,30.16,SW,225,0.0,0.0,67,0.00,,,0.01,WUHU216HW,2013-04-24 01:12:00,
2013-04-23 21:17:00,59.2,48.7,30.16,SW,225,0.0,0.0,68,0.00,,,0.01,WUHU216HW,2013-04-24 01:17:00,
2013-04-23 21:22:00,58.9,48.3,30.16,SW,225,0.0,0.0,68,0.00,,,0.01,WUHU216HW,2013-04-24 01:22:00,
2013-04-23 21:27:00,58.7,48.2,30.16,SSW,203,0.0,0.0,68,0.00,,,0.01,WUHU216HW,2013-04-24 01:27:00,
2013-04-23 21:32:00,58.3,48.2,30.16,SW,225,0.0,0.0,69,0.00,,,0.01,WUHU216HW,2013-04-24 01:32:00,
2013-04-23 21:37:00,58.1,48.0,30.16,SW,225,0.0,0.0,69,0.00,,,0.01,WUHU216HW,2013-04-24 01:37:00,
2013-04-23 21:42:00,58.0,47.9,30.16,WSW,248,0.0,0.0,69,0.00,,,0.01,WUHU216HW,2013-04-24 01:42:00,
2013-04-23 21:47:00,57.8,48.1,30.17,SW,225,0.0,0.0,70,0.00,,,0.01,WUHU216HW,2013-04-24 01:47:00,
2013-04-23 21:52:00,57.6,47.9,30.17,SW,225,0.0,0.0,70,0.00,,,0.01,WUHU216HW,2013-04-24 01:52:00,
2013-04-23 21:57:00,57.2,47.5,30.17,WNW,293,0.0,0.0,70,0.00,,,0.01,WUHU216HW,2013-04-24 01:57:00,
2013-04-23 22:02:00,57.2,47.9,30.17,WNW,293,0.0,0.0,71,0.00,,,0.01,WUHU216HW,2013-04-24 02:02:00,
2013-04-23 22:07:00,57.1,47.7,30.17,WNW,293,0.0,0.0,71,0.00,,,0.01,WUHU216HW,2013-04-24 02:07:00,
2013-04-23 22:12:00,56.9,47.9,30.17,WNW,293,0.0,0.0,72,0.00,,,0.01,WUHU216HW,2013-04-24 02:12:00,
2013-04-23 22:17:00,56.9,47.9,30.17,SW,225,0.0,0.0,72,0.00,,,0.01,WUHU216HW,2013-04-24 02:17:00,
2013-04-23 22:22:00,56.5,47.6,30.17,SW,225,0.0,0.0,72,0.00,,,0.01,WUHU216HW,2013-04-24 02:22:00,
2013-04-23 22:27:00,56.5,47.6,30.17,SSW,203,0.0,0.0,72,0.00,,,0.01,WUHU216HW,2013-04-24 02:27:00,
2013-04-23 22:32:00,56.3,47.8,30.17,SSW,203,0.0,0.0,73,0.00,,,0.01,WUHU216HW,2013-04-24 02:32:00,
2013-04-23 22:37:00,56.2,47.6,30.17,SSW,203,0.0,0.0,73,0.00,,,0.01,WUHU216HW,2013-04-24 02:37:00,
2013-04-23 22:43:00,56.0,47.4,30.16,SSW,203,0.0,0.0,73,0.00,,,0.01,WUHU216HW,2013-04-24 02:43:00,
2013-04-23 22:48:00,55.8,47.3,30.16,SSE,158,0.0,0.0,73,0.00,,,0.01,WUHU216HW,2013-04-24 02:48:00,
2013-04-23 22:53:00,55.8,47.3,30.16,South,180,0.0,0.4,73,0.00,,,0.01,WUHU216HW,2013-04-24 02:53:00,
2013-04-23 22:58:00,55.6,47.4,30.15,South,180,0.0,0.4,74,0.00,,,0.01,WUHU216HW,2013-04-24 02:58:00,
2013-04-23 23:03:00,55.4,47.3,30.15,South,180,0.0,0.0,74,0.00,,,0.01,WUHU216HW,2013-04-24 03:03:00,
2013-04-23 23:09:00,55.4,47.3,30.15,NNW,338,0.0,0.0,74,0.00,,,0.01,WUHU216HW,2013-04-24 03:09:00,
2013-04-23 23:14:00,55.1,46.9,30.14,East,90,0.4,0.9,74,0.00,,,0.01,WUHU216HW,2013-04-24 03:14:00,
2013-04-23 23:19:00,55.1,47.3,30.14,WSW,248,0.2,1.1,75,0.00,,,0.01,WUHU216HW,2013-04-24 03:19:00,
2013-04-23 23:24:00,54.7,46.9,30.14,SW,225,0.4,1.1,75,0.00,,,0.01,WUHU216HW,2013-04-24 03:24:00,
2013-04-23 23:29:00,54.7,47.3,30.15,WSW,248,0.4,1.1,76,0.00,,,0.01,WUHU216HW,2013-04-24 03:29:00,
2013-04-23 23:34:00,54.5,47.1,30.14,SSE,158,0.0,0.7,76,0.00,,,0.01,WUHU216HW,2013-04-24 03:34:00,
2013-04-23 23:39:00,54.4,46.6,30.14,SSE,158,0.0,0.4,75,0.00,,,0.01,WUHU216HW,2013-04-24 03:39:00,
2013-04-23 23:44:00,54.4,46.6,30.15,WSW,248,0.2,0.4,75,0.00,,,0.01,WUHU216HW,2013-04-24 03:44:00,
2013-04-23 23:50:00,54.2,46.5,30.15,WSW,248,0.0,0.4,75,0.00,,,0.01,WUHU216HW,2013-04-24 03:50:00,
2013-04-23 23:55:00,54.0,46.3,30.15,WSW,248,0.0,0.2,75,0.00,,,0.01,WUHU216HW,2013-04-24 03:55:00,